TimeEDT,TemperatureF,Dew PointF,Humidity,Sea Level PressureIn,VisibilityMPH,Wind Direction,Wind SpeedMPH,Gust SpeedMPH,PrecipitationIn,Events,Conditions,WindDirDegrees,DateUTC
12:34 AM,62.6,60.8,94,29.69,6.0,South,5.8,-,0.03,Rain,Light Rain,170,2013-04-20 04:34:00
12:53 AM,55.9,50.0,80,29.71,4.0,West,8.1,18.4,0.08,Rain,Light Rain,260,2013-04-20 04:53:00
1:19 AM,53.6,48.2,82,29.70,10.0,WSW,4.6,-,0.01,Rain,Light Rain,250,2013-04-20 05:19:00
1:53 AM,53.1,48.0,83,29.69,10.0,Calm,Calm,-,0.02,Rain,Light Rain,0,2013-04-20 05:53:00
2:53 AM,52.0,46.9,83,29.68,9.0,Calm,Calm,-,0.01,Rain,Light Rain,0,2013-04-20 06:53:00
3:28 AM,51.8,48.2,88,29.73,4.0,West,6.9,-,0.05,Rain,Rain,260,2013-04-20 07:28:00
3:53 AM,51.1,48.0,89,29.71,5.0,WNW,3.5,-,0.10,Rain,Light Rain,290,2013-04-20 07:53:00
4:09 AM,50.0,46.4,87,29.71,6.0,NNW,8.1,-,0.02,Rain,Light Rain,330,2013-04-20 08:09:00
4:37 AM,46.4,42.8,87,29.75,4.0,NNW,8.1,-,0.05,Rain,Light Rain,330,2013-04-20 08:37:00
4:53 AM,45.0,41.0,86,29.76,4.0,NNW,6.9,-,0.06,Rain,Light Rain,330,2013-04-20 08:53:00
5:53 AM,44.1,39.0,82,29.81,10.0,NW,4.6,-,0.00,,Overcast,320,2013-04-20 09:53:00
6:34 AM,44.6,39.2,81,29.84,7.0,Variable,6.9,-,0.00,Rain,Light Rain,0,2013-04-20 10:34:00
6:46 AM,42.8,39.2,87,29.86,4.0,NW,3.5,-,0.00,Rain,Light Rain,320,2013-04-20 10:46:00
6:53 AM,43.0,39.9,89,29.86,4.0,WNW,3.5,-,0.00,Rain,Light Rain,300,2013-04-20 10:53:00
7:53 AM,44.1,39.9,85,29.87,10.0,Calm,Calm,-,0.00,,Overcast,0,2013-04-20 11:53:00
8:00 AM,44.6,39.2,81,29.86,10.0,Calm,Calm,-,N/A,,Overcast,0,2013-04-20 12:00:00
8:53 AM,46.9,41.0,80,29.87,10.0,West,5.8,-,N/A,,Partly Cloudy,260,2013-04-20 12:53:00
9:53 AM,50.0,33.1,52,29.88,10.0,West,11.5,18.4,0.01,,Partly Cloudy,280,2013-04-20 13:53:00
10:53 AM,50.0,32.0,50,29.93,10.0,WNW,11.5,-,N/A,,Clear,290,2013-04-20 14:53:00
11:53 AM,50.0,24.1,36,29.96,10.0,West,16.1,21.9,N/A,,Clear,280,2013-04-20 15:53:00
12:53 PM,51.1,27.0,39,29.95,10.0,West,9.2,-,N/A,,Clear,280,2013-04-20 16:53:00
1:53 PM,55.0,30.0,38,29.94,10.0,WNW,9.2,19.6,N/A,,Partly Cloudy,290,2013-04-20 17:53:00
2:53 PM,55.0,27.0,34,29.95,10.0,West,9.2,25.3,N/A,,Clear,280,2013-04-20 18:53:00
3:53 PM,55.9,27.0,33,29.96,10.0,WNW,12.7,20.7,N/A,,Scattered Clouds,300,2013-04-20 19:53:00
4:53 PM,55.9,26.1,32,29.99,10.0,West,12.7,23.0,N/A,,Clear,270,2013-04-20 20:53:00
5:53 PM,55.9,24.1,29,30.02,10.0,WNW,10.4,18.4,N/A,,Partly Cloudy,300,2013-04-20 21:53:00
6:53 PM,54.0,21.9,29,30.06,10.0,WNW,12.7,16.1,N/A,,Partly Cloudy,290,2013-04-20 22:53:00
7:53 PM,52.0,21.9,31,30.11,10.0,NW,9.2,-,N/A,,Partly Cloudy,310,2013-04-20 23:53:00
8:53 PM,50.0,21.9,33,30.16,10.0,Variable,4.6,-,N/A,,Clear,0,2013-04-21 00:53:00
9:53 PM,48.0,24.1,39,30.21,10.0,NW,5.8,-,N/A,,Clear,320,2013-04-21 01:53:00
10:53 PM,46.0,24.1,42,30.25,10.0,NW,8.1,19.6,N/A,,Clear,320,2013-04-21 02:53:00
11:53 PM,43.0,21.9,43,30.29,10.0,NNW,10.4,-,N/A,,Clear,340,2013-04-21 03:53:00